Location: Hines Observatory
(31.5604°N, 83.5172°W)
Time: 04:33:00
(UTC-04:00)

Daily predictions for brighter satellites

Satellite Brightness Start Highest point End
(mag) Time Altitude Azimuth Time Altitude Azimuth Time Altitude Azimuth
USA 267 3.7 00:03:18 10° NE 00:07:57 50° NE 00:07:57 50° NE
Lacrosse 5 4.1 00:17:43 18° NE 00:17:43 18° NE 00:18:58 10° NE
Cosmos 1980 Rocket 3.3 00:19:11 10° NNW 00:22:51 41° NW 00:22:51 41° NW
Cosmos 2322 Rocket 3.5 00:30:35 10° N 00:34:12 35° NNE 00:34:12 35° NNE
Lacrosse 5 rocket 4.2 00:38:20 10° N 00:40:09 16° NNE 00:40:09 16° NNE
USA 229 DEB 4.2 00:37:20 10° NW 00:43:06 57° WNW 00:43:06 57° WNW
USA 229 4.2 00:37:26 10° NW 00:43:12 57° WNW 00:43:12 57° WNW
CZ-2C R/B 4.1 00:50:06 10° NNE 00:53:11 34° NNE 00:53:11 34° NNE
SL-16 R/B 3.9 01:22:52 10° NNW 01:25:26 27° NW 01:25:26 27° NW
Cosmos 2360 Rocket 3.9 02:02:03 10° NNW 02:04:36 27° NNW 02:04:36 27° NNW
COSMOS 2428 4.0 02:06:11 10° N 02:09:55 38° NNE 02:09:55 38° NNE
USA 234 4.0 02:21:18 39° E 02:23:06 47° NE 02:29:18 10° NNW
ATLAS 3B CENTAUR R/B 4.3 01:57:23 10° WSW 02:25:41 76° S 02:35:09 10° E
ATLAS 2AS CENTAUR R/B 3.3 02:34:37 10° NNW 02:42:26 59° ENE 02:43:52 51° E
Cosmos 2297 Rocket 3.3 02:45:42 40° NE 02:45:42 40° NE 02:49:31 10° NNE
Cosmos 2333 Rocket 3.2 02:38:36 10° N 02:43:19 43° NE 02:43:19 43° NE
Cosmos 2219 Rocket 3.0 02:45:15 10° NNW 02:49:22 47° N 02:49:22 47° N
VEP-3 4.2 02:29:15 10° W 03:02:22 32° SE 03:05:06 10° ESE
SL-16 R/B 4.4 02:58:18 15° ESE 03:01:55 25° ENE 03:06:46 10° NNE
NPP 4.3 03:01:10 10° NNE 03:05:22 51° NE 03:05:22 51° NE
CZ-3B DEB 4.2 03:03:30 54° S 03:07:24 72° SE 03:22:03 10° NE
Cosmos 2237 Rocket 2.8 03:05:13 10° N 03:10:34 52° ENE 03:10:34 52° ENE
SL-16 R/B 4.4 03:07:49 10° N 03:12:07 22° ENE 03:16:23 10° ESE
Cosmos 2227 Rocket 2.9 03:22:51 45° NW 03:22:51 45° NW 03:27:24 10° N
Resurs 1-4 Rocket 3.1 03:18:43 10° NNE 03:23:38 38° E 03:23:38 38° E
ARIANE 5 R/B 3.5 03:23:53 10° NNE 03:28:27 37° E 03:28:27 37° E
COBE Rocket 4.4 03:35:39 10° NNE 03:39:38 53° ENE 03:39:38 53° ENE
CZ-2D R/B 2.2 03:40:01 10° NNE 03:45:13 63° ESE 03:45:23 63° ESE
BREEZE-M R/B 4.3 03:49:02 55° S 03:50:28 65° SE 03:55:20 10° ENE
Cosmos 1666 Rocket 4.1 03:50:56 55° ENE 03:50:56 55° ENE 03:54:51 10° NNE
Cosmos 1072 Rocket 4.3 03:45:15 10° N 03:51:24 81° W 03:52:02 72° SSW
Cosmos 1513 Rocket 4.5 03:47:52 10° N 03:54:18 82° E 03:56:00 52° SSE
SL-08 R/B 4.0 03:57:02 45° NW 03:57:02 45° NW 04:00:44 10° NNW
Cosmos 1891 Rocket 4.4 03:51:03 10° N 03:57:23 84° E 03:59:03 52° SSE
Cosmos 1455 3.5 03:53:50 10° N 03:56:14 36° N 03:56:14 36° N
GPS 2-04 Rocket1 4.3 04:01:30 30° ESE 04:01:30 30° ESE 04:03:42 10° ESE
IRS-1C 4.4 03:54:57 10° N 03:59:59 52° WNW 03:59:59 52° WNW
CBERS 1 LM4 rocket 4.4 03:55:05 10° N 04:00:30 82° WNW 04:00:48 78° SW
Lacrosse 4 Rocket 2.0 04:02:51 52° N 04:02:51 52° N 04:06:09 10° NNE
APEX 4.4 04:01:35 59° WSW 04:02:25 64° WNW 04:09:27 10° NNE
USA 234 4.2 04:08:35 29° W 04:08:35 29° W 04:12:06 10° WNW
Cosmos 1805 Rocket 4.2 04:07:50 45° NW 04:07:50 45° NW 04:11:17 10° N
Spot 4 Rocket 4.0 04:02:18 10° N 04:07:24 66° WNW 04:07:35 65° W
Cosmos 1464 Rocket 3.9 04:05:28 10° NNW 04:11:29 59° W 04:12:17 54° SW
Cosmos 2208 Rocket 3.8 04:08:03 10° NNW 04:13:16 74° WSW 04:13:46 68° SSW
Cosmos 1241 Rocket 4.3 04:11:12 10° NNW 04:17:37 80° WSW 04:22:27 18° SSE
ADEOS Rocket 3.7 04:10:22 10° N 04:17:48 59° WNW 04:20:34 40° SW
IRS-1D 3.8 04:17:34 10° N 04:22:44 52° WNW 04:23:25 48° W
Cosmos 1869 3.1 04:21:09 10° N 04:25:10 86° W 04:25:10 86° W
Cosmos 2333 Rocket 4.1 04:24:01 10° WNW 04:25:16 14° WNW 04:25:16 14° WNW
Cosmos 2297 Rocket 3.9 04:27:30 17° WNW 04:28:22 17° WNW 04:32:00 10° NNW
ATLAS 2AS CENTAUR R/B 4.1 04:26:56 10° WNW 04:31:13 22° W 04:31:13 22° W
CZ-2D R/B 3.4 04:29:39 10° NNE 04:33:45 86° E 04:34:35 56° S
NOSS 3-4 (A) 4.2 04:26:59 10° NNW 04:34:08 68° ENE 04:41:43 10° SE
NOSS 3-4 (C) 4.2 04:27:05 10° NNW 04:34:14 67° ENE 04:41:49 10° SE
Sich 1 3.7 04:34:32 38° WNW 04:34:32 38° WNW 04:38:28 10° NNW
Cosmos 1633 Rocket 3.3 04:34:28 47° W 04:34:31 47° W 04:38:44 10° N
Okean O Rocket 3.9 04:31:40 10° NE 04:34:51 20° E 04:38:02 10° SE
Cosmos 1470 Rocket 3.5 04:33:53 46° S 04:35:07 77° E 04:39:26 10° N
SL-16 R/B 2.9 04:43:23 34° SW 04:45:12 42° W 04:51:01 10° NNW
Cosmos 332 Rocket 3.9 04:44:49 10° NNW 04:49:41 74° ENE 04:54:31 10° SSE
ATLAS 5 CENTAUR R/B 1.9 04:49:34 32° S 04:51:36 68° ESE 04:56:25 10° NE
UNKNOWN OBJECT B 3.3 04:48:27 10° N 04:52:13 42° WNW 04:52:48 39° W
Abrixas rocket 3.5 04:51:59 27° SSE 04:52:30 29° SE 04:55:25 10° ENE
MOS 1 Rocket 3.6 04:47:18 10° N 04:52:30 66° WNW 04:55:15 29° SSW
Cosmos 220 Rocket 4.1 04:52:17 40° SW 04:53:42 64° WNW 04:58:08 10° N
Cosmos 2237 Rocket 4.0 04:51:01 10° WNW 04:52:19 13° WNW 04:52:19 13° WNW
SL-16 R/B 2.5 04:51:02 10° NW 04:56:20 42° WSW 04:59:21 23° SSW
Cosmos 1354 Rocket 4.2 04:53:07 21° S 04:56:43 69° ESE 05:01:58 10° NNE
SL-24 R/B 3.5 04:55:59 10° N 04:59:42 76° WNW 05:01:08 35° SSW
Cosmos 1315 Rocket 4.0 04:56:12 11° SSE 04:59:52 40° E 05:03:39 10° NNE
CZ-4B R/B 4.5 04:55:56 10° NNE 05:00:51 37° E 05:05:49 10° SSE
Resurs 1-4 Rocket 3.6 04:59:18 10° NNW 05:03:10 21° WNW 05:04:43 19° W
Atlas Centaur 2 4.4 04:59:28 15° SSW 05:04:29 26° SSE 05:11:11 10° E
ARIANE 5 R/B 4.0 05:03:50 10° NNW 05:07:22 19° WNW 05:08:48 17° W
ADEOS II 2.5 05:04:42 10° NNE 05:09:55 63° E 05:15:06 10° S
ATLAS 3B CENTAUR R/B 2.9 04:58:46 10° W 05:11:26 55° SSW 05:16:08 10° ESE
Meteor 2-3 Rocket 3.9 05:07:13 10° S 05:12:51 78° E 05:18:35 10° N
BREEZE M DEB (TANK) 2.9 05:15:57 24° W 05:17:11 37° NW 05:19:18 10° NNE
MOZ.5/SAFIR/RUBIN 5/SL-8 4.4 05:18:26 18° SSW 05:21:26 35° W 05:25:47 10° NNW
Cosmos 1943 4.4 05:17:12 10° N 05:22:37 46° ENE 05:27:59 10° SE
CZ-2D R/B 4.0 05:22:30 10° NW 05:24:42 13° WNW 05:26:43 10° W
Cosmos 1867 3.6 05:20:41 18° SW 05:24:43 71° WNW 05:30:10 10° NNE
Cosmos 2263 Rocket 2.1 05:20:19 14° SSW 05:25:12 86° WNW 05:30:47 10° NNE
Meteosat 1 Rocket2 3.0 05:23:52 20° WSW 05:26:39 52° S 05:30:14 10° E
Cosmos 1892 2.7 05:24:53 15° SSW 05:27:52 61° W 05:31:39 10° N
USA 161 3.1 05:30:02 12° WNW 05:30:02 12° WNW 05:30:17 10° NW
OAO 3 Rocket 3.3 05:25:10 16° W 05:29:12 76° NNW 05:34:08 10° ENE
Cosmos 1933 3.9 05:26:40 10° NNW 05:30:28 37° W 05:34:02 11° SSW
CZ-3 R/B 3.6 04:52:54 10° W 05:34:20 73° SSW 05:42:50 10° ESE
Meteor 2-10 Rocket 3.7 05:32:02 10° NNW 05:36:51 49° W 05:41:44 10° SSW
Cosmos 1862 Rocket 4.3 05:34:11 10° NNW 05:38:01 32° W 05:41:49 10° SSW
GPS 2-04 Rocket1 3.7 05:36:03 12° W 05:39:10 28° SSW 05:42:47 10° SSE
Cosmos 1400 Rocket 4.0 05:38:33 15° WSW 05:40:47 24° WNW 05:44:01 10° NNW
PAYLOAD B 4.2 05:37:11 10° N 05:42:40 74° WNW 05:48:08 10° SSW
Cosmos 841 Rocket 3.6 05:38:57 10° NNW 05:44:05 54° WSW 05:49:10 10° S
Meteor 1-31 Rocket 4.0 05:43:57 10° NNE 05:47:42 43° E 05:51:24 10° S
Landsat 4 4.1 05:45:07 10° S 05:48:43 43° W 05:52:21 10° NNW
GOES 2 Rocket 4.4 05:40:23 10° W 05:48:51 61° SSW 05:55:11 10° ESE
Cosmos 371 Rocket 4.2 05:50:26 10° NW 05:54:26 27° W 05:58:25 10° SSW
EO 1 Del DPAF 3.7 05:53:27 10° SSE 05:57:15 67° ENE 06:01:04 10° N
Cosmos 1782 3.7 05:53:36 10° N 05:57:32 54° E 06:01:27 10° SSE
BREEZE-M DEB (TANK) 3.8 05:56:36 10° S 05:58:42 26° ESE 06:02:48 10° ENE
Nadezhda 4 Rocket 4.0 05:55:29 10° SSW 06:01:40 72° W 06:07:58 10° N
Cosmos 1703 Rocket 3.9 05:59:54 10° NNW 06:04:07 47° W 06:08:21 10° SSW
CZ-3A R/B 3.4 06:00:17 10° NW 06:04:58 80° NE 06:23:20 10° SE
